Time,TemperatureF,DewpointF,PressureIn,WindDirection,WindDirectionDegrees,WindSpeedMPH,WindSpeedGustMPH,Humidity,HourlyPrecipIn,Conditions,Clouds,dailyrainin,SolarRadiationWatts/m^2,SoftwareType,DateUTC
2013-06-21 00:01:00,65.9,54.6,30.01,South,191,0.0,1.0,67,0.00,,,0.00,0,WeatherCatV1.15B25,2013-06-21 04:01:00,
2013-06-21 00:06:00,65.7,54.8,30.02,SSW,192,1.0,1.0,68,0.00,,,0.00,0,WeatherCatV1.15B25,2013-06-21 04:06:00,
2013-06-21 00:11:00,65.5,55.1,30.02,South,191,0.0,0.0,69,0.00,,,0.00,0,WeatherCatV1.15B25,2013-06-21 04:11:00,
2013-06-21 00:16:00,65.2,55.6,30.03,South,191,0.0,0.0,71,0.00,,,0.00,0,WeatherCatV1.15B25,2013-06-21 04:16:00,
2013-06-21 00:21:00,64.8,55.6,30.03,South,191,0.0,0.0,72,0.00,,,0.00,0,WeatherCatV1.15B25,2013-06-21 04:21:00,
2013-06-21 00:26:00,64.0,55.5,30.03,South,191,0.0,0.0,74,0.00,,,0.00,0,WeatherCatV1.15B25,2013-06-21 04:26:00,
2013-06-21 00:31:00,63.5,55.8,30.03,South,191,0.0,0.0,76,0.00,,,0.00,0,WeatherCatV1.15B25,2013-06-21 04:31:00,
2013-06-21 00:36:00,63.0,55.7,30.04,South,191,0.0,0.0,77,0.00,,,0.00,0,WeatherCatV1.15B25,2013-06-21 04:36:00,
2013-06-21 00:38:00,62.9,55.6,30.04,South,191,0.0,0.0,77,0.00,,,0.00,0,WeatherCatV1.15B25,2013-06-21 04:38:00,
2013-06-21 00:43:00,62.6,55.3,30.04,South,191,0.0,0.0,77,0.00,,,0.00,0,WeatherCatV1.15B25,2013-06-21 04:43:00,
2013-06-21 00:48:00,62.3,55.3,30.04,South,191,0.0,0.0,78,0.00,,,0.00,0,WeatherCatV1.15B25,2013-06-21 04:48:00,
2013-06-21 00:53:00,62.0,55.4,30.04,South,191,0.0,0.0,79,0.00,,,0.00,0,WeatherCatV1.15B25,2013-06-21 04:53:00,
2013-06-21 00:55:00,61.9,55.7,30.04,South,191,0.0,0.0,80,0.00,,,0.00,0,WeatherCatV1.15B25,2013-06-21 04:55:00,
2013-06-21 01:00:00,61.6,55.0,30.04,South,191,0.0,0.0,79,0.00,,,0.00,0,WeatherCatV1.15B25,2013-06-21 05:00:00,
2013-06-21 01:05:00,61.3,55.4,30.04,South,191,0.0,0.0,81,0.00,,,0.00,0,WeatherCatV1.15B25,2013-06-21 05:05:00,
2013-06-21 01:10:00,60.9,55.0,30.03,South,191,0.0,0.0,81,0.00,,,0.00,0,WeatherCatV1.15B25,2013-06-21 05:10:00,
2013-06-21 01:15:00,60.8,55.3,30.04,South,191,0.0,0.0,82,0.00,,,0.00,0,WeatherCatV1.15B25,2013-06-21 05:15:00,
2013-06-21 01:20:00,60.6,55.4,30.04,South,191,0.0,0.0,83,0.00,,,0.00,0,WeatherCatV1.15B25,2013-06-21 05:20:00,
2013-06-21 01:25:00,60.2,55.0,30.04,South,191,0.0,0.0,83,0.00,,,0.00,0,WeatherCatV1.15B25,2013-06-21 05:25:00,
2013-06-21 01:30:00,59.9,55.4,30.03,South,191,0.0,0.0,85,0.00,,,0.00,0,WeatherCatV1.15B25,2013-06-21 05:30:00,
2013-06-21 01:35:00,59.7,55.5,30.03,South,191,0.0,0.0,86,0.00,,,0.00,0,WeatherCatV1.15B25,2013-06-21 05:35:00,
2013-06-21 01:40:00,59.5,55.3,30.03,South,191,0.0,0.0,86,0.00,,,0.00,0,WeatherCatV1.15B25,2013-06-21 05:40:00,
2013-06-21 01:45:00,59.3,55.4,30.03,South,191,0.0,0.0,87,0.00,,,0.00,0,WeatherCatV1.15B25,2013-06-21 05:45:00,
2013-06-21 01:50:00,58.9,55.0,30.03,South,191,0.0,0.0,87,0.00,,,0.00,0,WeatherCatV1.15B25,2013-06-21 05:50:00,
2013-06-21 01:55:00,58.7,55.2,30.03,South,191,0.0,0.0,88,0.00,,,0.00,0,WeatherCatV1.15B25,2013-06-21 05:55:00,
2013-06-21 02:00:00,58.7,55.2,30.02,South,191,0.0,0.0,88,0.00,,,0.00,0,WeatherCatV1.15B25,2013-06-21 06:00:00,
2013-06-21 02:05:00,58.5,55.3,30.02,South,191,0.0,0.0,89,0.00,,,0.00,0,WeatherCatV1.15B25,2013-06-21 06:05:00,
2013-06-21 02:10:00,58.4,55.5,30.02,South,191,0.0,0.0,90,0.00,,,0.00,0,WeatherCatV1.15B25,2013-06-21 06:10:00,
2013-06-21 02:15:00,58.3,55.4,30.03,South,191,0.0,0.0,90,0.00,,,0.00,0,WeatherCatV1.15B25,2013-06-21 06:15:00,
2013-06-21 02:20:00,58.2,55.3,30.02,South,191,0.0,0.0,90,0.00,,,0.00,0,WeatherCatV1.15B25,2013-06-21 06:20:00,
2013-06-21 02:25:00,58.1,55.2,30.03,South,191,0.0,0.0,90,0.00,,,0.00,0,WeatherCatV1.15B25,2013-06-21 06:25:00,
2013-06-21 02:30:00,58.1,55.2,30.03,South,191,0.0,0.0,90,0.00,,,0.00,0,WeatherCatV1.15B25,2013-06-21 06:30:00,
2013-06-21 02:35:00,58.0,55.4,30.03,South,191,0.0,0.0,91,0.00,,,0.00,0,WeatherCatV1.15B25,2013-06-21 06:35:00,
2013-06-21 02:40:00,57.8,55.2,30.03,South,191,0.0,0.0,91,0.00,,,0.00,0,WeatherCatV1.15B25,2013-06-21 06:40:00,
2013-06-21 02:45:00,57.7,55.1,30.03,South,191,0.0,0.0,91,0.00,,,0.00,0,WeatherCatV1.15B25,2013-06-21 06:45:00,
2013-06-21 02:50:00,57.6,55.0,30.03,South,191,0.0,0.0,91,0.00,,,0.00,0,WeatherCatV1.15B25,2013-06-21 06:50:00,
2013-06-21 02:55:00,57.6,55.0,30.03,South,191,0.0,0.0,91,0.00,,,0.00,0,WeatherCatV1.15B25,2013-06-21 06:55:00,
2013-06-21 03:00:00,57.5,54.9,30.03,South,191,0.0,0.0,91,0.00,,,0.00,0,WeatherCatV1.15B25,2013-06-21 07:00:00,
2013-06-21 03:05:00,57.5,54.9,30.03,South,191,0.0,0.0,91,0.00,,,0.00,0,WeatherCatV1.15B25,2013-06-21 07:05:00,
2013-06-21 03:10:00,57.5,54.9,30.03,South,191,0.0,0.0,91,0.00,,,0.00,0,WeatherCatV1.15B25,2013-06-21 07:10:00,
2013-06-21 03:15:00,57.4,54.8,30.03,South,191,0.0,0.0,91,0.00,,,0.00,0,WeatherCatV1.15B25,2013-06-21 07:15:00,
2013-06-21 03:20:00,57.4,54.8,30.03,South,191,0.0,0.0,91,0.00,,,0.00,0,WeatherCatV1.15B25,2013-06-21 07:20:00,
2013-06-21 03:25:00,57.4,54.8,30.03,South,191,0.0,0.0,91,0.00,,,0.00,0,WeatherCatV1.15B25,2013-06-21 07:25:00,
2013-06-21 03:30:00,57.3,54.7,30.03,South,191,0.0,0.0,91,0.00,,,0.00,0,WeatherCatV1.15B25,2013-06-21 07:30:00,
2013-06-21 03:35:00,57.3,54.7,30.03,South,191,0.0,0.0,91,0.00,,,0.00,0,WeatherCatV1.15B25,2013-06-21 07:35:00,
2013-06-21 03:40:00,57.2,54.6,30.03,South,191,0.0,0.0,91,0.00,,,0.00,0,WeatherCatV1.15B25,2013-06-21 07:40:00,
2013-06-21 03:45:00,57.2,54.6,30.03,South,191,0.0,0.0,91,0.00,,,0.00,0,WeatherCatV1.15B25,2013-06-21 07:45:00,
2013-06-21 03:50:00,57.1,54.2,30.03,South,191,0.0,0.0,90,0.00,,,0.00,0,WeatherCatV1.15B25,2013-06-21 07:50:00,
2013-06-21 03:55:00,57.0,54.1,30.02,South,191,0.0,0.0,90,0.00,,,0.00,0,WeatherCatV1.15B25,2013-06-21 07:55:00,
2013-06-21 04:00:00,56.9,54.3,30.02,South,191,0.0,0.0,91,0.00,,,0.00,0,WeatherCatV1.15B25,2013-06-21 08:00:00,
2013-06-21 04:05:00,56.8,54.2,30.02,South,191,0.0,0.0,91,0.00,,,0.00,0,WeatherCatV1.15B25,2013-06-21 08:05:00,
2013-06-21 04:10:00,56.8,54.2,30.02,South,191,0.0,0.0,91,0.00,,,0.00,0,WeatherCatV1.15B25,2013-06-21 08:10:00,
2013-06-21 04:15:00,56.7,54.1,30.02,South,191,0.0,0.0,91,0.00,,,0.00,0,WeatherCatV1.15B25,2013-06-21 08:15:00,
2013-06-21 04:20:00,56.6,54.0,30.02,South,191,0.0,0.0,91,0.00,,,0.00,0,WeatherCatV1.15B25,2013-06-21 08:20:00,
2013-06-21 04:25:00,56.5,53.9,30.02,South,191,0.0,0.0,91,0.00,,,0.00,0,WeatherCatV1.15B25,2013-06-21 08:25:00,
2013-06-21 04:30:00,56.4,53.8,30.03,South,191,0.0,0.0,91,0.00,,,0.00,0,WeatherCatV1.15B25,2013-06-21 08:30:00,
2013-06-21 04:35:00,56.3,53.7,30.03,South,191,0.0,0.0,91,0.00,,,0.00,0,WeatherCatV1.15B25,2013-06-21 08:35:00,
2013-06-21 04:40:00,56.3,53.7,30.03,South,191,0.0,0.0,91,0.00,,,0.00,0,WeatherCatV1.15B25,2013-06-21 08:40:00,
2013-06-21 04:45:00,56.2,53.6,30.03,South,191,0.0,0.0,91,0.00,,,0.00,0,WeatherCatV1.15B25,2013-06-21 08:45:00,
2013-06-21 04:50:00,56.1,53.5,30.03,South,191,0.0,0.0,91,0.00,,,0.00,0,WeatherCatV1.15B25,2013-06-21 08:50:00,
2013-06-21 04:55:00,56.0,53.4,30.03,South,191,0.0,0.0,91,0.00,,,0.00,0,WeatherCatV1.15B25,2013-06-21 08:55:00,
2013-06-21 05:00:00,55.9,53.3,30.03,South,191,0.0,0.0,91,0.00,,,0.00,0,WeatherCatV1.15B25,2013-06-21 09:00:00,
2013-06-21 05:05:00,55.9,53.3,30.03,South,191,0.0,0.0,91,0.00,,,0.00,0,WeatherCatV1.15B25,2013-06-21 09:05:00,
2013-06-21 05:10:00,55.8,53.2,30.03,South,191,0.0,0.0,91,0.00,,,0.00,0,WeatherCatV1.15B25,2013-06-21 09:10:00,
2013-06-21 05:15:00,55.7,53.1,30.03,South,191,0.0,0.0,91,0.00,,,0.00,0,WeatherCatV1.15B25,2013-06-21 09:15:00,
2013-06-21 05:20:00,55.7,53.4,30.03,South,191,0.0,0.0,92,0.00,,,0.00,0,WeatherCatV1.15B25,2013-06-21 09:20:00,
2013-06-21 05:25:00,55.5,53.2,30.03,South,191,0.0,0.0,92,0.00,,,0.00,0,WeatherCatV1.15B25,2013-06-21 09:25:00,
2013-06-21 05:30:00,55.5,53.2,30.03,South,191,0.0,0.0,92,0.00,,,0.00,0,WeatherCatV1.15B25,2013-06-21 09:30:00,
2013-06-21 05:35:00,55.4,53.1,30.03,South,191,0.0,0.0,92,0.00,,,0.00,0,WeatherCatV1.15B25,2013-06-21 09:35:00,
2013-06-21 05:40:00,55.3,53.0,30.03,South,191,0.0,0.0,92,0.00,,,0.00,0,WeatherCatV1.15B25,2013-06-21 09:40:00,
2013-06-21 05:45:00,55.3,53.0,30.04,South,191,0.0,0.0,92,0.00,,,0.00,0,WeatherCatV1.15B25,2013-06-21 09:45:00,
2013-06-21 05:50:00,55.2,52.9,30.04,South,191,0.0,0.0,92,0.00,,,0.00,5,WeatherCatV1.15B25,2013-06-21 09:50:00,
2013-06-21 05:55:00,55.1,52.8,30.04,South,191,0.0,0.0,92,0.00,,,0.00,5,WeatherCatV1.15B25,2013-06-21 09:55:00,
2013-06-21 06:00:00,55.1,52.8,30.04,South,191,0.0,0.0,92,0.00,,,0.00,7,WeatherCatV1.15B25,2013-06-21 10:00:00,
2013-06-21 06:05:00,55.1,52.8,30.04,South,191,0.0,0.0,92,0.00,,,0.00,7,WeatherCatV1.15B25,2013-06-21 10:05:00,
2013-06-21 06:10:00,55.0,52.7,30.04,South,191,0.0,0.0,92,0.00,,,0.00,9,WeatherCatV1.15B25,2013-06-21 10:10:00,
2013-06-21 06:15:00,55.0,53.0,30.04,South,191,0.0,0.0,93,0.00,,,0.00,9,WeatherCatV1.15B25,2013-06-21 10:15:00,
2013-06-21 06:20:00,55.0,53.0,30.05,South,191,0.0,0.0,93,0.00,,,0.00,11,WeatherCatV1.15B25,2013-06-21 10:20:00,
2013-06-21 06:25:00,55.0,53.0,30.05,South,191,0.0,0.0,93,0.00,,,0.00,12,WeatherCatV1.15B25,2013-06-21 10:25:00,
2013-06-21 06:30:00,55.1,53.1,30.05,South,191,0.0,0.0,93,0.00,,,0.00,12,WeatherCatV1.15B25,2013-06-21 10:30:00,
2013-06-21 06:35:00,55.1,53.1,30.05,South,191,0.0,0.0,93,0.00,,,0.00,12,WeatherCatV1.15B25,2013-06-21 10:35:00,
2013-06-21 06:40:00,55.2,53.5,30.04,South,191,0.0,0.0,94,0.00,,,0.00,14,WeatherCatV1.15B25,2013-06-21 10:40:00,
2013-06-21 06:45:00,55.3,53.6,30.04,South,191,0.0,0.0,94,0.00,,,0.00,14,WeatherCatV1.15B25,2013-06-21 10:45:00,
2013-06-21 06:50:00,55.4,53.7,30.04,South,191,0.0,0.0,94,0.00,,,0.00,16,WeatherCatV1.15B25,2013-06-21 10:50:00,
2013-06-21 06:55:00,55.7,54.3,30.04,South,191,0.0,0.0,95,0.00,,,0.00,16,WeatherCatV1.15B25,2013-06-21 10:55:00,
2013-06-21 07:00:00,55.9,54.5,30.04,South,191,0.0,0.0,95,0.00,,,0.00,18,WeatherCatV1.15B25,2013-06-21 11:00:00,
2013-06-21 07:05:00,56.1,55.0,30.05,South,191,0.0,0.0,96,0.00,,,0.00,19,WeatherCatV1.15B25,2013-06-21 11:05:00,
2013-06-21 07:10:00,56.4,55.3,30.05,South,191,0.0,0.0,96,0.00,,,0.00,19,WeatherCatV1.15B25,2013-06-21 11:10:00,
2013-06-21 07:15:00,56.6,55.5,30.05,South,191,0.0,0.0,96,0.00,,,0.00,21,WeatherCatV1.15B25,2013-06-21 11:15:00,
2013-06-21 07:20:00,57.0,55.6,30.05,South,191,0.0,1.0,95,0.00,,,0.00,21,WeatherCatV1.15B25,2013-06-21 11:20:00,
2013-06-21 07:25:00,58.1,56.1,30.05,South,191,0.0,0.0,93,0.00,,,0.00,23,WeatherCatV1.15B25,2013-06-21 11:25:00,
2013-06-21 07:30:00,59.0,56.1,30.05,South,191,0.0,0.0,90,0.00,,,0.00,30,WeatherCatV1.15B25,2013-06-21 11:30:00,
2013-06-21 07:35:00,59.4,55.8,30.04,South,191,0.0,0.0,88,0.00,,,0.00,25,WeatherCatV1.15B25,2013-06-21 11:35:00,
2013-06-21 07:40:00,59.8,55.9,30.05,South,191,0.0,0.0,87,0.00,,,0.00,26,WeatherCatV1.15B25,2013-06-21 11:40:00,
2013-06-21 07:45:00,60.1,55.9,30.05,South,191,0.0,0.0,86,0.00,,,0.00,26,WeatherCatV1.15B25,2013-06-21 11:45:00,
2013-06-21 07:50:00,60.5,56.0,30.05,South,191,0.0,0.0,85,0.00,,,0.00,28,WeatherCatV1.15B25,2013-06-21 11:50:00,
2013-06-21 07:55:00,61.2,56.3,30.05,South,191,0.0,0.0,84,0.00,,,0.00,28,WeatherCatV1.15B25,2013-06-21 11:55:00,
2013-06-21 08:00:00,61.6,56.4,30.05,South,191,0.0,0.0,83,0.00,,,0.00,30,WeatherCatV1.15B25,2013-06-21 12:00:00,
2013-06-21 08:05:00,62.0,56.1,30.05,South,191,0.0,0.0,81,0.00,,,0.00,32,WeatherCatV1.15B25,2013-06-21 12:05:00,
2013-06-21 08:10:00,62.6,56.3,30.05,South,191,0.0,0.0,80,0.00,,,0.00,32,WeatherCatV1.15B25,2013-06-21 12:10:00,
2013-06-21 08:15:00,63.4,56.8,30.05,South,191,0.0,0.0,79,0.00,,,0.00,33,WeatherCatV1.15B25,2013-06-21 12:15:00,
2013-06-21 08:20:00,64.2,56.1,30.05,SSW,202,0.0,1.0,75,0.00,,,0.00,35,WeatherCatV1.15B25,2013-06-21 12:20:00,
2013-06-21 08:25:00,65.0,56.1,30.05,SSW,202,0.0,0.0,73,0.00,,,0.00,35,WeatherCatV1.15B25,2013-06-21 12:25:00,
2013-06-21 08:30:00,66.1,56.8,30.05,WSW,250,0.0,2.0,72,0.00,,,0.00,40,WeatherCatV1.15B25,2013-06-21 12:30:00,
2013-06-21 08:35:00,66.7,56.2,30.05,SW,215,2.0,3.0,69,0.00,,,0.00,37,WeatherCatV1.15B25,2013-06-21 12:35:00,
2013-06-21 08:36:00,66.7,56.2,30.05,SSW,213,1.0,3.0,69,0.00,,,0.00,40,WeatherCatV1.15B25,2013-06-21 12:36:00,
2013-06-21 08:41:00,67.2,56.7,30.05,WSW,250,0.0,0.0,69,0.00,,,0.00,37,WeatherCatV1.15B25,2013-06-21 12:41:00,
2013-06-21 08:46:00,67.7,56.3,30.06,South,188,0.0,5.0,67,0.00,,,0.00,39,WeatherCatV1.15B25,2013-06-21 12:46:00,
2013-06-21 08:51:00,68.1,55.9,30.05,South,187,2.0,5.0,65,0.00,,,0.00,40,WeatherCatV1.15B25,2013-06-21 12:51:00,
2013-06-21 08:56:00,68.4,56.2,30.05,WSW,242,2.0,2.0,65,0.00,,,0.00,51,WeatherCatV1.15B25,2013-06-21 12:56:00,
2013-06-21 09:01:00,68.8,56.1,30.05,SW,227,0.0,3.0,64,0.00,,,0.00,42,WeatherCatV1.15B25,2013-06-21 13:01:00,
2013-06-21 09:06:00,69.2,55.6,30.05,SE,136,2.0,4.0,62,0.00,,,0.00,46,WeatherCatV1.15B25,2013-06-21 13:06:00,
2013-06-21 09:11:00,69.4,55.4,30.05,South,184,1.0,5.0,61,0.00,,,0.00,46,WeatherCatV1.15B25,2013-06-21 13:11:00,
2013-06-21 09:16:00,69.6,55.5,30.05,SSW,198,0.0,2.0,61,0.00,,,0.00,47,WeatherCatV1.15B25,2013-06-21 13:16:00,
2013-06-21 09:21:00,69.9,56.7,30.05,SW,221,0.0,0.0,63,0.00,,,0.00,47,WeatherCatV1.15B25,2013-06-21 13:21:00,
2013-06-21 09:26:00,70.0,56.8,30.05,SSW,209,0.0,1.0,63,0.00,,,0.00,49,WeatherCatV1.15B25,2013-06-21 13:26:00,
2013-06-21 09:31:00,70.2,56.6,30.04,SSW,212,0.0,1.0,62,0.00,,,0.00,51,WeatherCatV1.15B25,2013-06-21 13:31:00,
2013-06-21 09:36:00,70.4,56.7,30.04,WSW,250,0.0,4.0,62,0.00,,,0.00,63,WeatherCatV1.15B25,2013-06-21 13:36:00,
2013-06-21 09:41:00,70.6,56.5,30.04,SSW,200,0.0,3.0,61,0.00,,,0.00,72,WeatherCatV1.15B25,2013-06-21 13:41:00,
2013-06-21 09:46:00,70.8,56.2,30.04,South,189,1.0,2.0,60,0.00,,,0.00,54,WeatherCatV1.15B25,2013-06-21 13:46:00,
2013-06-21 09:51:00,71.0,55.9,30.04,South,186,0.0,5.0,59,0.00,,,0.00,58,WeatherCatV1.15B25,2013-06-21 13:51:00,
2013-06-21 09:56:00,71.2,56.1,30.04,WNW,285,2.0,6.0,59,0.00,,,0.00,58,WeatherCatV1.15B25,2013-06-21 13:56:00,
2013-06-21 10:01:00,71.4,56.3,30.04,SW,230,0.0,2.0,59,0.00,,,0.00,58,WeatherCatV1.15B25,2013-06-21 14:01:00,
2013-06-21 10:06:00,71.7,56.1,30.04,South,184,0.0,3.0,58,0.00,,,0.00,62,WeatherCatV1.15B25,2013-06-21 14:06:00,
2013-06-21 10:11:00,72.0,56.9,30.04,WNW,289,0.0,3.0,59,0.00,,,0.00,62,WeatherCatV1.15B25,2013-06-21 14:11:00,
2013-06-21 10:16:00,72.2,56.6,30.04,WSW,245,0.0,2.0,58,0.00,,,0.00,63,WeatherCatV1.15B25,2013-06-21 14:16:00,
2013-06-21 10:21:00,72.4,57.2,30.04,West,276,0.0,1.0,59,0.00,,,0.00,98,WeatherCatV1.15B25,2013-06-21 14:21:00,
2013-06-21 10:26:00,72.7,57.5,30.04,WSW,250,2.0,3.0,59,0.00,,,0.00,69,WeatherCatV1.15B25,2013-06-21 14:26:00,
2013-06-21 10:31:00,73.1,56.9,30.04,WSW,249,0.0,2.0,57,0.00,,,0.00,69,WeatherCatV1.15B25,2013-06-21 14:31:00,
2013-06-21 10:36:00,73.3,56.6,30.04,SW,231,2.0,4.0,56,0.00,,,0.00,72,WeatherCatV1.15B25,2013-06-21 14:36:00,
2013-06-21 10:41:00,73.5,56.3,30.04,SW,234,0.0,3.0,55,0.00,,,0.00,88,WeatherCatV1.15B25,2013-06-21 14:41:00,
2013-06-21 10:46:00,73.7,57.5,30.04,SW,233,0.0,4.0,57,0.00,,,0.00,79,WeatherCatV1.15B25,2013-06-21 14:46:00,
2013-06-21 10:51:00,73.9,58.7,30.05,WSW,238,2.0,2.0,59,0.00,,,0.00,105,WeatherCatV1.15B25,2013-06-21 14:51:00,
2013-06-21 10:56:00,74.2,58.0,30.04,SW,221,0.0,2.0,57,0.00,,,0.00,77,WeatherCatV1.15B25,2013-06-21 14:56:00,
2013-06-21 11:01:00,74.3,58.5,30.04,SW,221,0.0,1.0,58,0.00,,,0.00,86,WeatherCatV1.15B25,2013-06-21 15:01:00,
2013-06-21 11:06:00,74.6,58.3,30.05,SW,221,0.0,1.0,57,0.00,,,0.00,79,WeatherCatV1.15B25,2013-06-21 15:06:00,
2013-06-21 11:11:00,74.8,58.5,30.05,SSW,212,2.0,5.0,57,0.00,,,0.00,97,WeatherCatV1.15B25,2013-06-21 15:11:00,
2013-06-21 11:16:00,74.9,58.1,30.05,WSW,255,0.0,3.0,56,0.00,,,0.00,83,WeatherCatV1.15B25,2013-06-21 15:16:00,
2013-06-21 11:21:00,75.1,58.3,30.05,SW,218,2.0,3.0,56,0.00,,,0.00,83,WeatherCatV1.15B25,2013-06-21 15:21:00,
2013-06-21 11:26:00,75.3,58.5,30.05,SSW,213,0.0,1.0,56,0.00,,,0.00,84,WeatherCatV1.15B25,2013-06-21 15:26:00,
2013-06-21 11:31:00,75.5,58.2,30.05,WNW,288,0.0,2.0,55,0.00,,,0.00,84,WeatherCatV1.15B25,2013-06-21 15:31:00,
2013-06-21 11:37:00,75.7,58.9,30.05,South,179,0.0,5.0,56,0.00,,,0.00,86,WeatherCatV1.15B25,2013-06-21 15:37:00,
2013-06-21 11:42:00,76.0,59.6,30.04,South,185,0.0,1.0,57,0.00,,,0.00,88,WeatherCatV1.15B25,2013-06-21 15:42:00,
2013-06-21 11:47:00,76.3,59.4,30.04,WSW,244,0.0,1.0,56,0.00,,,0.00,88,WeatherCatV1.15B25,2013-06-21 15:47:00,
2013-06-21 11:52:00,76.5,60.1,30.04,South,190,1.0,3.0,57,0.00,,,0.00,93,WeatherCatV1.15B25,2013-06-21 15:52:00,
2013-06-21 11:57:00,76.6,59.7,30.04,SW,236,0.0,3.0,56,0.00,,,0.00,91,WeatherCatV1.15B25,2013-06-21 15:57:00,
2013-06-21 12:02:00,76.9,60.0,30.04,SSW,197,0.0,1.0,56,0.00,,,0.00,93,WeatherCatV1.15B25,2013-06-21 16:02:00,
2013-06-21 12:07:00,77.0,59.1,30.04,SSW,205,5.0,5.0,54,0.00,,,0.00,98,WeatherCatV1.15B25,2013-06-21 16:07:00,
2013-06-21 12:12:00,77.2,59.8,30.04,SW,214,0.0,0.0,55,0.00,,,0.00,105,WeatherCatV1.15B25,2013-06-21 16:12:00,
2013-06-21 12:17:00,77.4,59.9,30.05,South,189,0.0,2.0,55,0.00,,,0.00,113,WeatherCatV1.15B25,2013-06-21 16:17:00,
2013-06-21 12:22:00,77.7,60.2,30.05,SSW,198,0.0,1.0,55,0.00,,,0.00,100,WeatherCatV1.15B25,2013-06-21 16:22:00,
2013-06-21 12:27:00,78.0,60.5,30.05,SSW,198,0.0,3.0,55,0.00,,,0.00,111,WeatherCatV1.15B25,2013-06-21 16:27:00,
2013-06-21 12:32:00,78.2,59.6,30.05,SW,235,3.0,4.0,53,0.00,,,0.00,107,WeatherCatV1.15B25,2013-06-21 16:32:00,
2013-06-21 12:37:00,78.2,59.1,30.05,SW,227,0.0,1.0,52,0.00,,,0.00,105,WeatherCatV1.15B25,2013-06-21 16:37:00,
2013-06-21 12:42:00,78.2,61.2,30.05,SW,227,0.0,0.0,56,0.00,,,0.00,113,WeatherCatV1.15B25,2013-06-21 16:42:00,
2013-06-21 12:47:00,78.5,59.9,30.05,SSW,205,0.0,3.0,53,0.00,,,0.00,113,WeatherCatV1.15B25,2013-06-21 16:47:00,
2013-06-21 12:52:00,78.8,60.7,30.04,SW,230,0.0,4.0,54,0.00,,,0.00,114,WeatherCatV1.15B25,2013-06-21 16:52:00,
2013-06-21 12:57:00,79.1,61.5,30.04,SSW,202,0.0,1.0,55,0.00,,,0.00,118,WeatherCatV1.15B25,2013-06-21 16:57:00,
2013-06-21 13:02:00,79.2,59.5,30.04,SSE,158,0.0,1.0,51,0.00,,,0.00,121,WeatherCatV1.15B25,2013-06-21 17:02:00,
2013-06-21 13:07:00,79.3,61.2,30.04,SW,227,2.0,2.0,54,0.00,,,0.00,130,WeatherCatV1.15B25,2013-06-21 17:07:00,
2013-06-21 13:12:00,79.4,61.3,30.04,West,259,0.0,1.0,54,0.00,,,0.00,144,WeatherCatV1.15B25,2013-06-21 17:12:00,
2013-06-21 13:17:00,79.6,60.4,30.04,South,178,2.0,4.0,52,0.00,,,0.00,171,WeatherCatV1.15B25,2013-06-21 17:17:00,
2013-06-21 13:22:00,80.0,61.3,30.04,SSE,157,0.0,3.0,53,0.00,,,0.00,374,WeatherCatV1.15B25,2013-06-21 17:22:00,
2013-06-21 13:27:00,79.8,60.0,30.03,South,182,0.0,4.0,51,0.00,,,0.00,221,WeatherCatV1.15B25,2013-06-21 17:27:00,
2013-06-21 13:32:00,80.3,60.5,30.03,South,191,3.0,3.0,51,0.00,,,0.00,373,WeatherCatV1.15B25,2013-06-21 17:32:00,
2013-06-21 13:37:00,80.0,59.7,30.03,SW,217,1.0,4.0,50,0.00,,,0.00,923,WeatherCatV1.15B25,2013-06-21 17:37:00,
2013-06-21 13:42:00,80.0,59.7,30.03,SW,220,0.0,2.0,50,0.00,,,0.00,919,WeatherCatV1.15B25,2013-06-21 17:42:00,
2013-06-21 13:46:00,81.0,60.0,30.02,SW,219,3.0,4.0,49,0.00,,,0.00,932,WeatherCatV1.15B25,2013-06-21 17:46:00,
2013-06-21 13:51:00,80.9,58.2,30.02,WSW,244,2.0,4.0,46,0.00,,,0.00,928,WeatherCatV1.15B25,2013-06-21 17:51:00,
2013-06-21 13:54:00,80.7,58.0,30.02,SSE,168,2.0,6.0,46,0.00,,,0.00,923,WeatherCatV1.15B25,2013-06-21 17:54:00,
2013-06-21 13:55:00,80.7,60.3,30.02,South,184,2.0,3.0,50,0.00,,,0.00,935,WeatherCatV1.15B25,2013-06-21 17:55:00,
2013-06-21 14:00:00,80.5,57.2,30.02,South,178,1.0,2.0,45,0.00,,,0.00,930,WeatherCatV1.15B25,2013-06-21 18:00:00,
2013-06-21 14:05:00,80.7,59.2,30.01,South,187,1.0,3.0,48,0.00,,,0.00,930,WeatherCatV1.15B25,2013-06-21 18:05:00,
2013-06-21 14:10:00,81.2,58.4,30.02,South,191,1.0,1.0,46,0.00,,,0.00,923,WeatherCatV1.15B25,2013-06-21 18:10:00,
2013-06-21 14:15:00,81.2,57.2,30.02,SSW,198,0.0,6.0,44,0.00,,,0.00,939,WeatherCatV1.15B25,2013-06-21 18:15:00,
2013-06-21 14:20:00,81.4,58.0,30.02,SW,231,3.0,4.0,45,0.00,,,0.00,933,WeatherCatV1.15B25,2013-06-21 18:20:00,
2013-06-21 14:23:00,81.2,57.2,30.02,SE,128,2.0,5.0,44,0.00,,,0.00,926,WeatherCatV1.15B25,2013-06-21 18:23:00,
2013-06-21 14:28:00,81.2,58.4,30.02,SSW,197,2.0,3.0,46,0.00,,,0.00,923,WeatherCatV1.15B25,2013-06-21 18:28:00,
2013-06-21 14:33:00,81.1,57.7,30.02,SW,232,0.0,6.0,45,0.00,,,0.00,916,WeatherCatV1.15B25,2013-06-21 18:33:00,
2013-06-21 14:37:00,81.3,60.3,30.02,South,181,0.0,0.0,49,0.00,,,0.00,907,WeatherCatV1.15B25,2013-06-21 18:37:00,
2013-06-21 14:42:00,81.6,59.4,30.02,NW,316,2.0,4.0,47,0.00,,,0.00,911,WeatherCatV1.15B25,2013-06-21 18:42:00,
2013-06-21 14:45:00,81.5,57.5,30.02,South,184,3.0,5.0,44,0.00,,,0.00,909,WeatherCatV1.15B25,2013-06-21 18:45:00,
2013-06-21 14:47:00,81.5,58.1,30.02,South,175,1.0,1.0,45,0.00,,,0.00,904,WeatherCatV1.15B25,2013-06-21 18:47:00,
2013-06-21 14:52:00,81.9,58.4,30.02,SSW,194,1.0,3.0,45,0.00,,,0.00,886,WeatherCatV1.15B25,2013-06-21 18:52:00,
2013-06-21 14:57:00,81.6,60.0,30.02,SSW,198,1.0,7.0,48,0.00,,,0.00,874,WeatherCatV1.15B25,2013-06-21 18:57:00,
2013-06-21 15:02:00,82.2,59.3,30.01,West,261,1.0,4.0,46,0.00,,,0.00,868,WeatherCatV1.15B25,2013-06-21 19:02:00,
2013-06-21 15:07:00,82.3,59.4,30.01,South,185,0.0,3.0,46,0.00,,,0.00,851,WeatherCatV1.15B25,2013-06-21 19:07:00,
2013-06-21 15:12:00,82.3,58.2,30.01,WSW,245,2.0,4.0,44,0.00,,,0.00,837,WeatherCatV1.15B25,2013-06-21 19:12:00,
2013-06-21 15:17:00,82.7,60.4,30.00,WSW,247,1.0,2.0,47,0.00,,,0.00,823,WeatherCatV1.15B25,2013-06-21 19:17:00,
2013-06-21 15:22:00,82.6,59.7,30.00,South,190,2.0,6.0,46,0.00,,,0.00,819,WeatherCatV1.15B25,2013-06-21 19:22:00,
2013-06-21 15:27:00,82.2,58.7,30.00,South,191,0.0,4.0,45,0.00,,,0.00,809,WeatherCatV1.15B25,2013-06-21 19:27:00,
2013-06-21 15:32:00,81.9,59.7,30.00,SSW,202,0.0,3.0,47,0.00,,,0.00,777,WeatherCatV1.15B25,2013-06-21 19:32:00,
2013-06-21 15:37:00,82.4,60.7,30.00,WNW,287,2.0,2.0,48,0.00,,,0.00,775,WeatherCatV1.15B25,2013-06-21 19:37:00,
2013-06-21 15:42:00,82.2,59.3,30.00,SSW,194,0.0,2.0,46,0.00,,,0.00,650,WeatherCatV1.15B25,2013-06-21 19:42:00,
2013-06-21 15:47:00,82.2,58.1,30.00,WSW,256,2.0,2.0,44,0.00,,,0.00,763,WeatherCatV1.15B25,2013-06-21 19:47:00,
2013-06-21 15:52:00,82.5,59.6,30.00,South,175,0.0,1.0,46,0.00,,,0.00,728,WeatherCatV1.15B25,2013-06-21 19:52:00,
2013-06-21 15:57:00,82.4,58.9,30.00,South,183,4.0,4.0,45,0.00,,,0.00,724,WeatherCatV1.15B25,2013-06-21 19:57:00,
2013-06-21 16:02:00,82.1,59.8,30.00,SSW,198,0.0,3.0,47,0.00,,,0.00,722,WeatherCatV1.15B25,2013-06-21 20:02:00,
2013-06-21 16:07:00,82.5,60.2,30.00,SSW,211,0.0,2.0,47,0.00,,,0.00,715,WeatherCatV1.15B25,2013-06-21 20:07:00,
2013-06-21 16:12:00,82.7,59.2,30.00,SW,230,0.0,1.0,45,0.00,,,0.00,693,WeatherCatV1.15B25,2013-06-21 20:12:00,
2013-06-21 16:17:00,82.8,59.3,29.99,South,191,3.0,5.0,45,0.00,,,0.00,689,WeatherCatV1.15B25,2013-06-21 20:17:00,
2013-06-21 16:22:00,82.3,60.0,30.00,South,190,0.0,3.0,47,0.00,,,0.00,661,WeatherCatV1.15B25,2013-06-21 20:22:00,
2013-06-21 16:27:00,82.1,59.2,29.99,SSW,195,0.0,1.0,46,0.00,,,0.00,635,WeatherCatV1.15B25,2013-06-21 20:27:00,
2013-06-21 16:32:00,82.4,60.7,30.00,SSW,213,1.0,2.0,48,0.00,,,0.00,633,WeatherCatV1.15B25,2013-06-21 20:32:00,
2013-06-21 16:37:00,82.3,58.2,29.99,SSW,205,0.0,3.0,44,0.00,,,0.00,610,WeatherCatV1.15B25,2013-06-21 20:37:00,
2013-06-21 16:42:00,82.5,59.0,29.99,SW,228,0.0,1.0,45,0.00,,,0.00,612,WeatherCatV1.15B25,2013-06-21 20:42:00,
2013-06-21 16:47:00,82.3,58.2,29.99,SSW,211,0.0,4.0,44,0.00,,,0.00,601,WeatherCatV1.15B25,2013-06-21 20:47:00,
2013-06-21 16:48:00,82.3,58.2,29.99,SSW,202,0.0,5.0,44,0.00,,,0.00,594,WeatherCatV1.15B25,2013-06-21 20:48:00,
2013-06-21 16:53:00,82.0,58.5,29.99,SSW,202,0.0,2.0,45,0.00,,,0.00,580,WeatherCatV1.15B25,2013-06-21 20:53:00,
2013-06-21 16:58:00,82.0,59.8,29.99,South,189,0.0,1.0,47,0.00,,,0.00,490,WeatherCatV1.15B25,2013-06-21 20:58:00,
2013-06-21 17:03:00,82.4,58.9,29.98,South,175,2.0,4.0,45,0.00,,,0.00,480,WeatherCatV1.15B25,2013-06-21 21:03:00,
2013-06-21 17:08:00,82.4,59.5,29.99,WSW,238,0.0,3.0,46,0.00,,,0.00,512,WeatherCatV1.15B25,2013-06-21 21:08:00,
2013-06-21 17:13:00,82.1,59.2,29.98,SSW,192,0.0,4.0,46,0.00,,,0.00,494,WeatherCatV1.15B25,2013-06-21 21:13:00,
2013-06-21 17:18:00,81.9,58.4,29.98,SSW,192,4.0,4.0,45,0.00,,,0.00,480,WeatherCatV1.15B25,2013-06-21 21:18:00,
2013-06-21 17:23:00,82.0,60.3,29.98,WSW,246,1.0,3.0,48,0.00,,,0.00,464,WeatherCatV1.15B25,2013-06-21 21:23:00,
2013-06-21 17:28:00,81.9,59.1,29.98,SSW,201,0.0,1.0,46,0.00,,,0.00,176,WeatherCatV1.15B25,2013-06-21 21:28:00,
2013-06-21 17:33:00,82.2,59.9,29.98,WSW,240,0.0,1.0,47,0.00,,,0.00,339,WeatherCatV1.15B25,2013-06-21 21:33:00,
2013-06-21 17:38:00,82.4,60.1,29.98,West,277,0.0,1.0,47,0.00,,,0.00,116,WeatherCatV1.15B25,2013-06-21 21:38:00,
2013-06-21 17:43:00,82.1,58.6,29.98,SW,233,0.0,2.0,45,0.00,,,0.00,134,WeatherCatV1.15B25,2013-06-21 21:43:00,
2013-06-21 17:48:00,81.9,59.7,29.98,SSW,194,2.0,2.0,47,0.00,,,0.00,107,WeatherCatV1.15B25,2013-06-21 21:48:00,
2013-06-21 17:53:00,81.8,58.4,29.98,South,187,1.0,4.0,45,0.00,,,0.00,111,WeatherCatV1.15B25,2013-06-21 21:53:00,
2013-06-21 17:58:00,81.8,58.4,29.98,SSW,211,2.0,4.0,45,0.00,,,0.00,111,WeatherCatV1.15B25,2013-06-21 21:58:00,
2013-06-21 18:03:00,81.7,58.3,29.98,WSW,254,2.0,5.0,45,0.00,,,0.00,156,WeatherCatV1.15B25,2013-06-21 22:03:00,
2013-06-21 18:08:00,81.6,58.8,29.98,SSW,194,2.0,3.0,46,0.00,,,0.00,98,WeatherCatV1.15B25,2013-06-21 22:08:00,
2013-06-21 18:13:00,81.7,60.1,29.98,SW,226,0.0,0.0,48,0.00,,,0.00,172,WeatherCatV1.15B25,2013-06-21 22:13:00,
2013-06-21 18:18:00,81.6,58.8,29.99,SSW,207,1.0,3.0,46,0.00,,,0.00,97,WeatherCatV1.15B25,2013-06-21 22:18:00,
2013-06-21 18:23:00,81.5,60.5,29.99,SW,224,1.0,1.0,49,0.00,,,0.00,130,WeatherCatV1.15B25,2013-06-21 22:23:00,
2013-06-21 18:28:00,81.3,59.1,29.99,SSW,200,0.0,2.0,47,0.00,,,0.00,79,WeatherCatV1.15B25,2013-06-21 22:28:00,
2013-06-21 18:33:00,81.2,59.6,29.99,South,189,0.0,0.0,48,0.00,,,0.00,120,WeatherCatV1.15B25,2013-06-21 22:33:00,
2013-06-21 18:38:00,81.1,59.5,29.99,SW,234,1.0,1.0,48,0.00,,,0.00,67,WeatherCatV1.15B25,2013-06-21 22:38:00,
2013-06-21 18:43:00,81.0,59.4,29.99,SSW,200,1.0,2.0,48,0.00,,,0.00,72,WeatherCatV1.15B25,2013-06-21 22:43:00,
2013-06-21 18:48:00,80.8,58.7,29.99,South,188,0.0,3.0,47,0.00,,,0.00,134,WeatherCatV1.15B25,2013-06-21 22:48:00,
2013-06-21 18:53:00,80.6,59.1,29.99,SW,232,0.0,0.0,48,0.00,,,0.00,111,WeatherCatV1.15B25,2013-06-21 22:53:00,
2013-06-21 18:58:00,80.3,58.2,29.99,West,264,0.0,1.0,47,0.00,,,0.00,100,WeatherCatV1.15B25,2013-06-21 22:58:00,
2013-06-21 19:03:00,80.0,58.5,29.99,SSW,194,0.0,3.0,48,0.00,,,0.00,65,WeatherCatV1.15B25,2013-06-21 23:03:00,
2013-06-21 19:08:00,79.6,58.2,29.99,South,190,0.0,2.0,48,0.00,,,0.00,93,WeatherCatV1.15B25,2013-06-21 23:08:00,
2013-06-21 19:13:00,79.4,58.0,29.99,South,190,0.0,1.0,48,0.00,,,0.00,51,WeatherCatV1.15B25,2013-06-21 23:13:00,
2013-06-21 19:18:00,79.3,58.5,29.98,South,187,0.0,1.0,49,0.00,,,0.00,35,WeatherCatV1.15B25,2013-06-21 23:18:00,
2013-06-21 19:23:00,79.1,58.3,29.99,South,186,0.0,0.0,49,0.00,,,0.00,32,WeatherCatV1.15B25,2013-06-21 23:23:00,
2013-06-21 19:28:00,78.9,58.7,29.99,South,186,0.0,0.0,50,0.00,,,0.00,28,WeatherCatV1.15B25,2013-06-21 23:28:00,
2013-06-21 19:33:00,78.7,59.0,29.98,South,186,0.0,0.0,51,0.00,,,0.00,25,WeatherCatV1.15B25,2013-06-21 23:33:00,
2013-06-21 19:38:00,78.4,60.4,29.99,South,186,0.0,0.0,54,0.00,,,0.00,21,WeatherCatV1.15B25,2013-06-21 23:38:00,
2013-06-21 19:43:00,77.7,61.7,29.99,South,186,0.0,0.0,58,0.00,,,0.00,18,WeatherCatV1.15B25,2013-06-21 23:43:00,
2013-06-21 19:48:00,77.0,61.6,29.98,South,186,0.0,0.0,59,0.00,,,0.00,14,WeatherCatV1.15B25,2013-06-21 23:48:00,
2013-06-21 19:53:00,76.4,61.0,29.98,South,186,0.0,0.0,59,0.00,,,0.00,12,WeatherCatV1.15B25,2013-06-21 23:53:00,
2013-06-21 19:58:00,75.8,60.9,29.98,South,186,0.0,0.0,60,0.00,,,0.00,11,WeatherCatV1.15B25,2013-06-21 23:58:00,
2013-06-21 20:03:00,75.4,61.5,29.98,South,186,0.0,0.0,62,0.00,,,0.00,9,WeatherCatV1.15B25,2013-06-22 00:03:00,
2013-06-21 20:08:00,74.9,61.9,29.98,South,186,0.0,0.0,64,0.00,,,0.00,9,WeatherCatV1.15B25,2013-06-22 00:08:00,
2013-06-21 20:13:00,74.5,61.9,29.98,South,186,0.0,0.0,65,0.00,,,0.00,5,WeatherCatV1.15B25,2013-06-22 00:13:00,
2013-06-21 20:18:00,74.1,62.4,29.98,South,186,0.0,0.0,67,0.00,,,0.00,0,WeatherCatV1.15B25,2013-06-22 00:18:00,
2013-06-21 20:23:00,73.6,62.4,29.98,South,186,0.0,0.0,68,0.00,,,0.00,0,WeatherCatV1.15B25,2013-06-22 00:23:00,
2013-06-21 20:28:00,73.2,61.6,29.98,South,186,0.0,0.0,67,0.00,,,0.00,0,WeatherCatV1.15B25,2013-06-22 00:28:00,
2013-06-21 20:33:00,72.8,61.6,29.98,South,186,0.0,0.0,68,0.00,,,0.00,0,WeatherCatV1.15B25,2013-06-22 00:33:00,
2013-06-21 20:38:00,72.4,61.6,29.99,South,186,0.0,0.0,69,0.00,,,0.00,0,WeatherCatV1.15B25,2013-06-22 00:38:00,
2013-06-21 20:43:00,72.2,61.9,29.98,South,186,0.0,0.0,70,0.00,,,0.00,0,WeatherCatV1.15B25,2013-06-22 00:43:00,
2013-06-21 20:48:00,71.7,61.4,29.98,South,186,0.0,0.0,70,0.00,,,0.00,0,WeatherCatV1.15B25,2013-06-22 00:48:00,
2013-06-21 20:53:00,71.3,61.4,29.98,South,186,0.0,0.0,71,0.00,,,0.00,0,WeatherCatV1.15B25,2013-06-22 00:53:00,
2013-06-21 20:58:00,71.1,61.2,29.98,South,186,0.0,0.0,71,0.00,,,0.00,0,WeatherCatV1.15B25,2013-06-22 00:58:00,
2013-06-21 21:03:00,70.9,60.6,29.98,South,186,0.0,1.0,70,0.00,,,0.00,0,WeatherCatV1.15B25,2013-06-22 01:03:00,
2013-06-21 21:08:00,71.0,60.7,29.98,South,191,0.0,3.0,70,0.00,,,0.00,0,WeatherCatV1.15B25,2013-06-22 01:08:00,
2013-06-21 21:13:00,71.3,61.0,29.99,South,191,0.0,0.0,70,0.00,,,0.00,0,WeatherCatV1.15B25,2013-06-22 01:13:00,
2013-06-21 21:18:00,70.8,61.3,29.99,South,191,0.0,0.0,72,0.00,,,0.00,0,WeatherCatV1.15B25,2013-06-22 01:18:00,
2013-06-21 21:23:00,70.6,60.7,29.99,South,191,0.0,0.0,71,0.00,,,0.00,0,WeatherCatV1.15B25,2013-06-22 01:23:00,
2013-06-21 21:28:00,70.8,60.1,29.99,South,191,0.0,0.0,69,0.00,,,0.00,0,WeatherCatV1.15B25,2013-06-22 01:28:00,
2013-06-21 21:33:00,71.3,58.9,29.99,South,191,0.0,0.0,65,0.00,,,0.00,0,WeatherCatV1.15B25,2013-06-22 01:33:00,
2013-06-21 21:38:00,71.7,58.9,29.99,SW,223,0.0,5.0,64,0.00,,,0.00,0,WeatherCatV1.15B25,2013-06-22 01:38:00,
2013-06-21 21:43:00,71.9,58.6,30.00,SSW,206,0.0,6.0,63,0.00,,,0.00,0,WeatherCatV1.15B25,2013-06-22 01:43:00,
2013-06-21 21:48:00,72.0,58.7,30.00,SSW,206,0.0,1.0,63,0.00,,,0.00,0,WeatherCatV1.15B25,2013-06-22 01:48:00,
2013-06-21 21:53:00,71.8,59.0,30.00,SSW,206,0.0,0.0,64,0.00,,,0.00,0,WeatherCatV1.15B25,2013-06-22 01:53:00,
2013-06-21 21:58:00,71.6,58.8,30.00,SSW,206,0.0,0.0,64,0.00,,,0.00,0,WeatherCatV1.15B25,2013-06-22 01:58:00,
2013-06-21 22:03:00,71.3,58.9,30.00,SSW,206,0.0,0.0,65,0.00,,,0.00,0,WeatherCatV1.15B25,2013-06-22 02:03:00,
2013-06-21 22:08:00,70.9,58.5,30.00,SSW,206,0.0,0.0,65,0.00,,,0.00,0,WeatherCatV1.15B25,2013-06-22 02:08:00,
2013-06-21 22:13:00,70.5,57.7,30.00,SSW,206,0.0,0.0,64,0.00,,,0.00,0,WeatherCatV1.15B25,2013-06-22 02:13:00,
2013-06-21 22:18:00,70.4,57.6,30.01,SSW,207,0.0,0.0,64,0.00,,,0.00,0,WeatherCatV1.15B25,2013-06-22 02:18:00,
2013-06-21 22:23:00,70.4,57.6,30.01,SW,232,0.0,1.0,64,0.00,,,0.00,0,WeatherCatV1.15B25,2013-06-22 02:23:00,
2013-06-21 22:28:00,70.4,57.6,30.01,SSW,208,0.0,0.0,64,0.00,,,0.00,0,WeatherCatV1.15B25,2013-06-22 02:28:00,
2013-06-21 22:33:00,70.1,57.8,30.01,SSW,208,0.0,1.0,65,0.00,,,0.00,0,WeatherCatV1.15B25,2013-06-22 02:33:00,
2013-06-21 22:38:00,69.6,58.1,30.01,SSW,208,0.0,0.0,67,0.00,,,0.00,0,WeatherCatV1.15B25,2013-06-22 02:38:00,
2013-06-21 22:43:00,69.3,57.4,30.01,SSW,208,0.0,0.0,66,0.00,,,0.00,0,WeatherCatV1.15B25,2013-06-22 02:43:00,
2013-06-21 22:48:00,68.9,57.9,30.01,SSW,208,0.0,0.0,68,0.00,,,0.00,0,WeatherCatV1.15B25,2013-06-22 02:48:00,
2013-06-21 22:53:00,68.6,57.6,30.01,SSW,211,0.0,1.0,68,0.00,,,0.00,0,WeatherCatV1.15B25,2013-06-22 02:53:00,
2013-06-21 22:58:00,68.6,57.6,30.01,SSW,211,0.0,0.0,68,0.00,,,0.00,0,WeatherCatV1.15B25,2013-06-22 02:58:00,
2013-06-21 23:03:00,68.7,57.7,30.01,SSW,211,0.0,0.0,68,0.00,,,0.00,0,WeatherCatV1.15B25,2013-06-22 03:03:00,
2013-06-21 23:08:00,68.5,57.5,30.01,SSW,211,0.0,0.0,68,0.00,,,0.00,0,WeatherCatV1.15B25,2013-06-22 03:08:00,
2013-06-21 23:13:00,68.2,57.2,30.01,SSW,211,0.0,0.0,68,0.00,,,0.00,0,WeatherCatV1.15B25,2013-06-22 03:13:00,
2013-06-21 23:18:00,68.3,57.7,30.01,SSW,211,0.0,1.0,69,0.00,,,0.00,0,WeatherCatV1.15B25,2013-06-22 03:18:00,
2013-06-21 23:23:00,68.2,58.0,30.01,SSW,211,0.0,0.0,70,0.00,,,0.00,0,WeatherCatV1.15B25,2013-06-22 03:23:00,
2013-06-21 23:28:00,67.9,56.9,30.01,SSW,211,0.0,1.0,68,0.00,,,0.00,0,WeatherCatV1.15B25,2013-06-22 03:28:00,
2013-06-21 23:33:00,67.8,56.8,30.01,SSW,200,0.0,1.0,68,0.00,,,0.00,0,WeatherCatV1.15B25,2013-06-22 03:33:00,
2013-06-21 23:38:00,67.8,56.4,30.01,SSW,200,0.0,0.0,67,0.00,,,0.00,0,WeatherCatV1.15B25,2013-06-22 03:38:00,
2013-06-21 23:43:00,67.6,56.7,30.01,SW,219,0.0,2.0,68,0.00,,,0.00,0,WeatherCatV1.15B25,2013-06-22 03:43:00,
2013-06-21 23:48:00,67.4,56.5,30.01,SW,219,0.0,0.0,68,0.00,,,0.00,0,WeatherCatV1.15B25,2013-06-22 03:48:00,
2013-06-21 23:53:00,67.1,56.6,30.01,SW,219,0.0,0.0,69,0.00,,,0.00,0,WeatherCatV1.15B25,2013-06-22 03:53:00,
2013-06-21 23:58:00,66.8,55.9,30.01,SW,219,0.0,0.0,68,0.00,,,0.00,0,WeatherCatV1.15B25,2013-06-22 03:58:00,